Simultaneous Nadir Overpasses (SNOs) Predictions

Prediction of SNOs between FY3D and NOAA-20 Satellite Orbit:

Table of predicted SNOs for the next 14.0 days since TLE Epoch: 7/30/2022
Index Date (FY3D) Time (FY3D) Lat,Lon (FY3D) SZA (FY3D ) Date (NOAA-20) Time (NOAA-20) Lat,Lon (NOAA-20) SZA (NOAA-20 ) Distance(km) Time Diff (sec)
1 08/02/2022 00:27:49 -81.22, -67.10 111.81 08/02/2022 00:29:05 -81.23, -67.16 111.84 1.11 76
2 08/02/2022 01:18:35 81.22, 100.23 68.20 08/02/2022 01:19:50 81.23, 100.09 68.18 2.35 75
3 08/02/2022 02:09:20 -81.22, -92.35 111.81 08/02/2022 02:10:34 -81.22, -92.21 111.87 2.41 74
4 08/02/2022 03:00:06 81.22, 74.97 68.20 08/02/2022 03:01:19 81.22, 75.04 68.15 1.21 73
5 08/02/2022 03:50:51 -81.22,-117.61 111.81 08/02/2022 03:52:04 -81.22,-117.65 111.85 0.74 73
6 08/02/2022 04:41:37 81.22, 49.71 68.20 08/02/2022 04:42:49 81.22, 49.60 68.18 1.91 72
7 08/02/2022 05:32:23 -81.22,-143.25 111.75 08/02/2022 05:33:34 -81.22,-143.09 111.82 2.82 71
8 08/02/2022 06:23:09 81.22, 24.07 68.26 08/02/2022 06:24:19 81.22, 24.17 68.20 1.64 70
9 08/02/2022 07:13:54 -81.22,-168.51 111.75 08/02/2022 07:15:04 -81.22,-168.52 111.79 0.26 70
10 08/02/2022 08:04:40 81.22, -1.19 68.26 08/02/2022 08:05:49 81.22, -1.27 68.23 1.44 69
11 08/02/2022 08:55:26 -81.22, 165.85 111.70 08/02/2022 08:56:34 -81.22, 166.04 111.77 3.25 68
12 08/02/2022 09:46:12 81.22, -26.83 68.31 08/02/2022 09:47:19 81.23, -26.71 68.26 2.12 67
13 08/02/2022 10:36:57 -81.22, 140.60 111.70 08/02/2022 10:38:04 -81.23, 140.61 111.74 0.30 67
14 08/02/2022 11:27:43 81.22, -52.09 68.31 08/02/2022 11:28:49 81.23, -52.14 68.29 1.03 66
15 08/02/2022 12:18:28 -81.22, 115.34 111.70 08/02/2022 12:19:34 -81.23, 115.17 111.71 2.93 66
16 08/02/2022 13:09:14 81.22, -77.34 68.31 08/02/2022 13:10:18 81.22, -77.20 68.26 2.55 64
17 08/02/2022 13:59:59 -81.22, 90.09 111.70 08/02/2022 14:01:03 -81.22, 90.12 111.74 0.62 64
18 08/02/2022 14:50:45 81.22,-102.60 68.31 08/02/2022 14:51:48 81.22,-102.63 68.28 0.56 63
19 08/02/2022 15:41:30 -81.22, 64.83 111.70 08/02/2022 15:42:33 -81.22, 64.68 111.71 2.52 63
20 08/02/2022 16:32:17 81.22,-128.25 68.37 08/02/2022 16:33:18 81.22,-128.07 68.31 3.00 61
21 08/02/2022 17:23:02 -81.22, 39.19 111.64 08/02/2022 17:24:03 -81.22, 39.25 111.69 0.99 61
22 08/02/2022 18:13:48 81.22,-153.50 68.37 08/02/2022 18:14:48 81.22,-153.51 68.34 0.14 60
23 08/02/2022 19:04:33 -81.22, 13.93 111.64 08/02/2022 19:05:33 -81.22, 13.81 111.66 2.09 60
24 08/02/2022 19:55:19 81.22,-178.76 68.37 08/02/2022 19:56:18 81.23,-178.94 68.36 3.16 59
25 08/02/2022 20:46:05 -81.22, -11.71 111.59 08/02/2022 20:47:03 -81.22, -11.63 111.63 1.45 58
26 08/02/2022 21:36:50 81.22, 155.99 68.37 08/02/2022 21:37:47 81.22, 156.01 68.33 0.53 57
27 08/02/2022 22:27:36 -81.22, -36.97 111.59 08/02/2022 22:28:33 -81.23, -37.06 111.61 1.69 57
28 08/02/2022 23:18:22 81.22, 130.34 68.43 08/02/2022 23:19:18 81.23, 130.18 68.42 2.73 56
29 08/03/2022 00:09:07 -81.22, -62.22 111.59 08/03/2022 00:10:02 -81.22, -62.11 111.64 1.84 55
30 08/03/2022 00:59:53 81.22, 105.09 68.43 08/03/2022 01:00:47 81.22, 105.13 68.39 0.83 54
31 08/03/2022 01:50:38 -81.22, -87.48 111.59 08/03/2022 01:51:32 -81.22, -87.55 111.61 1.27 54
32 08/03/2022 02:41:24 81.22, 79.83 68.43 08/03/2022 02:42:17 81.22, 79.70 68.42 2.26 53
33 08/03/2022 03:32:10 -81.22,-113.12 111.53 08/03/2022 03:33:02 -81.22,-112.99 111.58 2.25 52
34 08/03/2022 04:22:56 81.22, 54.18 68.48 08/03/2022 04:23:47 81.22, 54.26 68.44 1.29 51
35 08/03/2022 05:13:41 -81.22,-138.37 111.53 08/03/2022 05:14:32 -81.22,-138.42 111.55 0.83 51
36 08/03/2022 06:04:27 81.22, 28.93 68.48 08/03/2022 06:05:17 81.22, 28.82 68.47 1.81 50
37 08/03/2022 06:55:13 -81.22,-164.02 111.48 08/03/2022 06:56:02 -81.22,-163.86 111.53 2.70 49
38 08/03/2022 07:45:58 81.22, 3.67 68.48 08/03/2022 07:46:46 81.22, 3.77 68.44 1.75 48
39 08/03/2022 08:36:44 -81.22, 170.73 111.48 08/03/2022 08:37:32 -81.23, 170.71 111.50 0.53 48
40 08/03/2022 09:27:29 81.22, -21.58 68.48 08/03/2022 09:28:16 81.22, -21.66 68.47 1.39 47
41 08/03/2022 10:18:15 -81.22, 145.47 111.48 08/03/2022 10:19:01 -81.22, 145.65 111.53 3.10 46
42 08/03/2022 11:09:01 81.22, -47.23 68.54 08/03/2022 11:09:46 81.22, -47.10 68.49 2.18 45
43 08/03/2022 11:59:46 -81.22, 120.22 111.48 08/03/2022 12:00:31 -81.22, 120.22 111.50 0.15 45
44 08/03/2022 12:50:32 81.22, -72.49 68.54 08/03/2022 12:51:16 81.22, -72.54 68.52 0.90 44
45 08/03/2022 13:41:17 -81.22, 94.96 111.47 08/03/2022 13:42:01 -81.22, 94.78 111.47 3.07 44
46 08/03/2022 14:32:04 81.22, -98.13 68.60 08/03/2022 14:32:46 81.22, -97.97 68.55 2.65 42
47 08/03/2022 15:22:49 -81.22, 69.32 111.42 08/03/2022 15:23:31 -81.22, 69.35 111.45 0.45 42
48 08/03/2022 16:13:35 81.22,-123.39 68.60 08/03/2022 16:14:16 81.22,-123.41 68.58 0.49 41
49 08/03/2022 17:04:20 -81.22, 44.06 111.42 08/03/2022 17:05:01 -81.22, 43.91 111.42 2.65 41
50 08/03/2022 17:55:06 81.22,-148.64 68.60 08/03/2022 17:55:45 81.22,-148.46 68.55 3.10 39
51 08/03/2022 18:45:51 -81.22, 18.81 111.42 08/03/2022 18:46:30 -81.22, 18.86 111.45 0.93 39
52 08/03/2022 19:36:37 81.22,-173.90 68.60 08/03/2022 19:37:15 81.22,-173.90 68.58 0.27 38
53 08/03/2022 20:27:23 -81.22, -6.83 111.36 08/03/2022 20:28:01 -81.23, -6.96 111.37 2.25 38
54 08/03/2022 21:18:08 81.22, 160.84 68.60 08/03/2022 21:18:45 81.22, 160.66 68.60 3.08 37
55 08/03/2022 22:08:54 -81.22, -32.09 111.36 08/03/2022 22:09:30 -81.22, -32.02 111.39 1.28 36
56 08/03/2022 22:59:40 81.22, 135.20 68.65 08/03/2022 23:00:15 81.22, 135.23 68.63 0.47 35
57 08/03/2022 23:50:25 -81.22, -57.35 111.36 08/03/2022 23:51:00 -81.22, -57.45 111.37 1.81 35
58 08/04/2022 00:41:11 81.22, 109.94 68.65 08/04/2022 00:41:45 81.22, 109.79 68.66 2.61 34
59 08/04/2022 01:31:57 -81.22, -82.99 111.31 08/04/2022 01:32:30 -81.22, -82.89 111.34 1.71 33
60 08/04/2022 02:22:43 81.22, 84.30 68.71 08/04/2022 02:23:15 81.22, 84.35 68.68 0.97 32
61 08/04/2022 03:13:27 -81.22,-108.24 111.31 08/04/2022 03:13:59 -81.22,-108.32 111.31 1.39 32
62 08/04/2022 04:04:13 81.22, 59.04 68.71 08/04/2022 04:04:44 81.23, 58.92 68.71 2.16 31
63 08/04/2022 04:54:58 -81.22,-133.50 111.31 08/04/2022 04:55:28 -81.22,-133.38 111.34 2.14 30
64 08/04/2022 05:45:44 81.22, 33.78 68.71 08/04/2022 05:46:13 81.22, 33.86 68.68 1.40 29
65 08/04/2022 06:36:29 -81.22,-158.76 111.30 08/04/2022 06:36:58 -81.22,-158.81 111.31 1.01 29
66 08/04/2022 07:27:15 81.22, 8.53 68.71 08/04/2022 07:27:43 81.22, 8.43 68.71 1.71 28
67 08/04/2022 08:18:01 -81.22, 175.60 111.25 08/04/2022 08:18:28 -81.22, 175.75 111.29 2.54 27
68 08/04/2022 09:08:47 81.22, -17.12 68.77 08/04/2022 09:09:13 81.22, -17.01 68.74 1.84 26
69 08/04/2022 09:59:32 -81.22, 150.35 111.25 08/04/2022 09:59:58 -81.22, 150.31 111.26 0.54 26
70 08/04/2022 10:50:18 81.22, -42.37 68.77 08/04/2022 10:50:43 81.22, -42.45 68.77 1.23 25
71 08/04/2022 11:41:04 -81.22, 124.70 111.19 08/04/2022 11:41:28 -81.22, 124.88 111.23 2.98 24
72 08/04/2022 12:31:49 81.22, -67.63 68.77 08/04/2022 12:32:12 81.21, -67.50 68.74 2.33 23
73 08/04/2022 13:22:35 -81.22, 99.45 111.19 08/04/2022 13:22:58 -81.22, 99.44 111.20 0.24 23
74 08/04/2022 14:13:21 81.22, -93.28 68.83 08/04/2022 14:13:43 81.23, -93.32 68.82 0.84 22
75 08/04/2022 15:04:06 -81.22, 74.19 111.19 08/04/2022 15:04:28 -81.23, 74.01 111.18 3.20 22
76 08/04/2022 15:54:52 81.22,-118.53 68.83 08/04/2022 15:55:12 81.22,-118.37 68.79 2.76 20
77 08/04/2022 16:45:37 -81.22, 48.94 111.19 08/04/2022 16:45:57 -81.22, 48.95 111.21 0.41 20
78 08/04/2022 17:36:23 81.22,-143.79 68.83 08/04/2022 17:36:42 81.22,-143.81 68.82 0.35 19
79 08/04/2022 18:27:08 -81.22, 23.68 111.19 08/04/2022 18:27:27 -81.22, 23.52 111.18 2.78 19
80 08/04/2022 19:17:55 81.22,-169.44 68.88 08/04/2022 19:18:12 81.22,-169.25 68.85 3.22 17
81 08/04/2022 20:08:40 -81.22, -1.96 111.13 08/04/2022 20:08:57 -81.22, -1.92 111.15 0.73 17
82 08/04/2022 20:59:26 81.22, 165.31 68.89 08/04/2022 20:59:42 81.22, 165.32 68.88 0.19 16
83 08/04/2022 21:50:11 -81.22, -27.22 111.13 08/04/2022 21:50:27 -81.22, -27.36 111.12 2.34 16
84 08/04/2022 22:40:57 81.22, 140.05 68.89 08/04/2022 22:41:12 81.22, 139.88 68.90 2.94 15
85 08/04/2022 23:31:43 -81.22, -52.86 111.08 08/04/2022 23:31:57 -81.22, -52.79 111.09 1.19 14
86 08/05/2022 00:22:28 81.22, 114.80 68.89 08/05/2022 00:22:41 81.22, 114.83 68.87 0.69 13
87 08/05/2022 01:13:14 -81.22, -78.12 111.08 08/05/2022 01:13:27 -81.22, -78.23 111.07 1.94 13
88 08/05/2022 02:04:00 81.22, 89.15 68.94 08/05/2022 02:04:12 81.23, 89.01 68.96 2.50 12
89 08/05/2022 02:54:45 -81.22,-103.37 111.08 08/05/2022 02:54:56 -81.22,-103.28 111.10 1.59 11
90 08/05/2022 03:45:31 81.22, 63.89 68.94 08/05/2022 03:45:41 81.22, 63.95 68.93 1.06 10
91 08/05/2022 04:36:16 -81.22,-128.63 111.07 08/05/2022 04:36:26 -81.22,-128.72 111.07 1.51 10
92 08/05/2022 05:27:02 81.22, 38.64 68.95 08/05/2022 05:27:11 81.22, 38.52 68.96 2.02 9
93 08/05/2022 06:17:48 -81.22,-154.27 111.02 08/05/2022 06:17:56 -81.22,-154.15 111.04 2.01 8
94 08/05/2022 07:08:34 81.22, 12.99 69.00 08/05/2022 07:08:41 81.22, 13.08 68.99 1.53 7
95 08/05/2022 07:59:19 -81.22,-179.53 111.02 08/05/2022 07:59:26 -81.22,-179.59 111.01 1.07 7
96 08/05/2022 08:50:05 81.22, -12.27 69.00 08/05/2022 08:50:11 81.22, -12.36 69.01 1.56 6
97 08/05/2022 09:40:51 -81.22, 154.83 110.96 08/05/2022 09:40:56 -81.22, 154.97 110.98 2.45 5
98 08/05/2022 10:31:36 81.22, -37.52 69.00 08/05/2022 10:31:40 81.22, -37.41 68.99 2.00 4
99 08/05/2022 11:22:22 -81.22, 129.57 110.96 08/05/2022 11:22:26 -81.22, 129.54 110.96 0.72 4
100 08/05/2022 12:13:07 81.22, -62.78 69.01 08/05/2022 12:13:10 81.22, -62.85 69.01 1.14 3
101 08/05/2022 13:03:53 -81.22, 104.32 110.96 08/05/2022 13:03:55 -81.22, 104.48 110.99 2.86 2
102 08/05/2022 13:54:39 81.22, -88.43 69.06 08/05/2022 13:54:40 81.22, -88.28 69.04 2.44 1
103 08/05/2022 14:45:24 -81.22, 79.06 110.96 08/05/2022 14:45:25 -81.22, 79.05 110.96 0.27 1
104 08/05/2022 15:36:10 81.22,-113.68 69.06 08/05/2022 15:36:10 81.22,-113.72 69.07 0.64 0
105 08/05/2022 16:26:56 -81.22, 53.42 110.90 08/05/2022 16:26:55 -81.22, 53.61 110.93 3.28 1
106 08/05/2022 17:17:42 81.22,-139.33 69.12 08/05/2022 17:17:40 81.22,-139.16 69.10 2.92 2
107 08/05/2022 18:08:27 -81.22, 28.16 110.90 08/05/2022 18:08:25 -81.22, 28.17 110.90 0.23 2
108 08/05/2022 18:59:13 81.22,-164.59 69.12 08/05/2022 18:59:10 81.22,-164.59 69.12 0.30 3
109 08/05/2022 19:49:58 -81.22, 2.91 110.90 08/05/2022 19:49:55 -81.22, 2.74 110.87 2.88 3
110 08/05/2022 20:40:44 81.22, 170.16 69.12 08/05/2022 20:40:40 81.23, 169.97 69.15 3.25 4
111 08/05/2022 21:31:29 -81.22, -22.35 110.90 08/05/2022 21:31:24 -81.22, -22.32 110.90 0.72 5
112 08/05/2022 22:22:15 81.22, 144.90 69.12 08/05/2022 22:22:09 81.22, 144.92 69.12 0.36 6
113 08/05/2022 23:13:01 -81.22, -47.99 110.84 08/05/2022 23:12:55 -81.23, -48.14 110.82 2.47 6
114 08/06/2022 00:03:46 81.22, 119.64 69.13 08/06/2022 00:03:39 81.22, 119.48 69.15 2.80 7
115 08/06/2022 00:54:32 -81.22, -73.25 110.84 08/06/2022 00:54:24 -81.22, -73.19 110.85 1.06 8
116 08/06/2022 01:45:18 81.22, 94.00 69.18 08/06/2022 01:45:09 81.22, 94.04 69.18 0.75 9
117 08/06/2022 02:36:03 -81.22, -98.51 110.84 08/06/2022 02:35:54 -81.22, -98.63 110.82 2.03 9
118 08/06/2022 03:26:49 81.22, 68.74 69.18 08/06/2022 03:26:39 81.22, 68.61 69.21 2.32 10
119 08/06/2022 04:17:35 -81.22,-124.15 110.78 08/06/2022 04:17:24 -81.22,-124.06 110.79 1.49 11
120 08/06/2022 05:08:21 81.22, 43.10 69.24 08/06/2022 05:08:09 81.22, 43.17 69.24 1.26 12
121 08/06/2022 05:59:06 -81.22,-149.41 110.78 08/06/2022 05:58:54 -81.22,-149.50 110.76 1.60 12
122 08/06/2022 06:49:51 81.22, 17.84 69.24 08/06/2022 06:49:38 81.22, 17.73 69.27 1.88 13
123 08/06/2022 07:40:36 -81.22,-174.66 110.78 08/06/2022 07:40:22 -81.22,-174.55 110.79 1.93 14
124 08/06/2022 08:31:22 81.22, -7.42 69.24 08/06/2022 08:31:07 81.22, -7.32 69.24 1.68 15
125 08/06/2022 09:22:07 -81.22, 160.08 110.78 08/06/2022 09:21:52 -81.22, 160.01 110.76 1.21 15
126 08/06/2022 10:12:53 81.22, -32.68 69.24 08/06/2022 10:12:37 81.22, -32.76 69.27 1.41 16
127 08/06/2022 11:03:39 -81.22, 134.44 110.72 08/06/2022 11:03:22 -81.22, 134.58 110.73 2.33 17
128 08/06/2022 11:54:25 81.22, -58.32 69.30 08/06/2022 11:54:07 81.22, -58.20 69.29 2.15 18
129 08/06/2022 12:45:10 -81.22, 109.18 110.72 08/06/2022 12:44:52 -81.22, 109.14 110.71 0.74 18
130 08/06/2022 13:35:56 81.22, -83.58 69.30 08/06/2022 13:35:37 81.22, -83.63 69.32 0.94 19
131 08/06/2022 14:26:42 -81.22, 83.54 110.67 08/06/2022 14:26:22 -81.22, 83.70 110.68 2.77 20
132 08/06/2022 15:17:27 81.22,-108.84 69.30 08/06/2022 15:17:06 81.21,-108.68 69.29 2.62 21
133 08/06/2022 16:08:13 -81.22, 58.28 110.66 08/06/2022 16:07:52 -81.22, 58.27 110.65 0.38 21
134 08/06/2022 16:58:59 81.22,-134.48 69.36 08/06/2022 16:58:37 81.22,-134.51 69.38 0.59 22
135 08/06/2022 17:49:44 -81.22, 33.03 110.66 08/06/2022 17:49:21 -81.21, 33.21 110.68 3.19 23
136 08/06/2022 18:40:30 81.22,-159.74 69.36 08/06/2022 18:40:06 81.22,-159.56 69.35 3.07 24
137 08/06/2022 19:31:15 -81.22, 7.77 110.66 08/06/2022 19:30:51 -81.22, 7.78 110.65 0.27 24
138 08/06/2022 20:22:01 81.22, 175.00 69.36 08/06/2022 20:21:36 81.22, 175.00 69.38 0.09 25
139 08/06/2022 21:12:46 -81.22, -17.49 110.66 08/06/2022 21:12:21 -81.22, -17.66 110.62 2.98 25
140 08/06/2022 22:03:32 81.22, 149.75 69.37 08/06/2022 22:03:06 81.22, 149.57 69.41 3.08 26
141 08/06/2022 22:54:18 -81.22, -43.13 110.60 08/06/2022 22:53:51 -81.22, -43.10 110.59 0.54 27
142 08/06/2022 23:45:04 81.22, 124.10 69.42 08/06/2022 23:44:36 81.22, 124.13 69.44 0.50 28
143 08/07/2022 00:35:49 -81.22, -68.39 110.60 08/07/2022 00:35:21 -81.22, -68.53 110.56 2.54 28
144 08/07/2022 01:26:35 81.22, 98.84 69.42 08/07/2022 01:26:06 81.22, 98.69 69.46 2.61 29
145 08/07/2022 02:17:21 -81.22, -94.03 110.55 08/07/2022 02:16:51 -81.22, -93.97 110.54 1.01 30
146 08/07/2022 03:08:06 81.22, 73.59 69.43 08/07/2022 03:07:35 81.22, 73.64 69.44 0.97 31
147 08/07/2022 03:58:52 -81.22,-119.29 110.54 08/07/2022 03:58:21 -81.22,-119.41 110.51 2.12 31
148 08/07/2022 04:49:37 81.22, 48.33 69.43 08/07/2022 04:49:05 81.22, 48.20 69.46 2.17 32
149 08/07/2022 05:40:23 -81.22,-144.54 110.54 08/07/2022 05:39:50 -81.22,-144.46 110.54 1.41 33
150 08/07/2022 06:31:09 81.22, 22.68 69.48 08/07/2022 06:30:35 81.22, 22.76 69.49 1.39 34
151 08/07/2022 07:21:54 -81.22,-169.80 110.54 08/07/2022 07:21:20 -81.22,-169.90 110.51 1.69 34
152 08/07/2022 08:12:40 81.22, -2.57 69.49 08/07/2022 08:12:05 81.22, -2.67 69.52 1.68 35
153 08/07/2022 09:03:26 -81.22, 164.56 110.48 08/07/2022 09:02:50 -81.22, 164.67 110.48 1.83 36
154 08/07/2022 09:54:12 81.22, -28.22 69.54 08/07/2022 09:53:35 81.22, -28.11 69.55 1.88 37
155 08/07/2022 10:44:57 -81.22, 139.30 110.48 08/07/2022 10:44:20 -81.22, 139.23 110.45 1.25 37
156 08/07/2022 11:35:43 81.22, -53.48 69.55 08/07/2022 11:35:05 81.22, -53.55 69.58 1.23 38
157 08/07/2022 12:26:29 -81.22, 113.66 110.43 08/07/2022 12:25:50 -81.22, 113.79 110.42 2.28 39
158 08/07/2022 13:17:14 81.22, -78.73 69.55 08/07/2022 13:16:34 81.22, -78.60 69.55 2.33 40
159 08/07/2022 14:08:00 -81.22, 88.40 110.42 08/07/2022 14:07:20 -81.22, 88.35 110.39 0.88 40
160 08/07/2022 14:58:45 81.22,-103.99 69.55 08/07/2022 14:58:04 81.22,-104.04 69.58 0.78 41
161 08/07/2022 15:49:31 -81.22, 63.14 110.42 08/07/2022 15:48:49 -81.22, 63.30 110.42 2.68 42
162 08/07/2022 16:40:17 81.22,-129.64 69.61 08/07/2022 16:39:34 81.22,-129.47 69.61 2.79 43
163 08/07/2022 17:31:02 -81.22, 37.89 110.42 08/07/2022 17:30:19 -81.22, 37.86 110.39 0.41 43
164 08/07/2022 18:21:48 81.22,-154.90 69.61 08/07/2022 18:21:04 81.22,-154.91 69.64 0.28 44
165 08/07/2022 19:12:34 -81.22, 12.24 110.36 08/07/2022 19:11:49 -81.22, 12.43 110.36 3.12 45
166 08/07/2022 20:03:19 81.22, 179.85 69.61 08/07/2022 20:02:33 81.21,-179.96 69.61 3.28 46
167 08/07/2022 20:54:05 -81.22, -13.01 110.36 08/07/2022 20:53:19 -81.22, -13.01 110.34 0.14 46
168 08/07/2022 21:44:51 81.22, 154.20 69.67 08/07/2022 21:44:04 81.22, 154.21 69.69 0.37 47
169 08/07/2022 22:35:36 -81.22, -38.27 110.36 08/07/2022 22:34:49 -81.22, -38.45 110.31 3.04 47
170 08/07/2022 23:26:22 81.22, 128.94 69.67 08/07/2022 23:25:34 81.22, 128.78 69.72 2.89 48
171 08/08/2022 00:17:07 -81.22, -63.53 110.36 08/08/2022 00:16:18 -81.21, -63.50 110.33 0.57 49
172 08/08/2022 01:07:53 81.22, 103.69 69.67 08/08/2022 01:07:03 81.22, 103.72 69.69 0.67 50
173 08/08/2022 01:58:38 -81.22, -88.78 110.35 08/08/2022 01:57:48 -81.22, -88.94 110.31 2.63 50
174 08/08/2022 02:49:24 81.22, 78.43 69.67 08/08/2022 02:48:33 81.22, 78.29 69.72 2.42 51
175 08/08/2022 03:40:10 -81.22,-114.43 110.30 08/08/2022 03:39:18 -81.22,-114.37 110.28 0.90 52
176 08/08/2022 04:30:56 81.22, 52.78 69.73 08/08/2022 04:30:03 81.22, 52.85 69.75 1.13 53
177 08/08/2022 05:21:41 -81.22,-139.68 110.30 08/08/2022 05:20:48 -81.22,-139.81 110.25 2.18 53
178 08/08/2022 06:12:27 81.22, 27.52 69.73 08/08/2022 06:11:33 81.22, 27.41 69.78 1.95 54
179 08/08/2022 07:03:13 -81.22,-165.33 110.24 08/08/2022 07:02:18 -81.22,-165.25 110.22 1.35 55
180 08/08/2022 07:53:58 81.22, 2.27 69.74 08/08/2022 07:53:02 81.21, 2.36 69.75 1.63 56
181 08/08/2022 08:44:44 -81.22, 169.42 110.24 08/08/2022 08:43:48 -81.22, 169.32 110.19 1.75 56
182 08/08/2022 09:35:29 81.22, -23.38 69.79 08/08/2022 09:34:32 81.22, -23.46 69.84 1.52 57
183 08/08/2022 10:26:14 -81.22, 144.16 110.24 08/08/2022 10:25:16 -81.21, 144.26 110.22 1.78 58
184 08/08/2022 11:17:00 81.22, -48.64 69.79 08/08/2022 11:16:01 81.22, -48.52 69.81 2.07 59
185 08/08/2022 12:07:45 -81.22, 118.90 110.23 08/08/2022 12:06:46 -81.22, 118.83 110.19 1.34 59
186 08/08/2022 12:58:31 81.22, -73.89 69.80 08/08/2022 12:57:31 81.22, -73.95 69.84 1.01 60
187 08/08/2022 13:49:17 -81.22, 93.26 110.18 08/08/2022 13:48:16 -81.22, 93.39 110.16 2.19 61
188 08/08/2022 14:40:03 81.22, -99.54 69.85 08/08/2022 14:39:01 81.22, -99.39 69.87 2.55 62
189 08/08/2022 15:30:48 -81.22, 68.00 110.17 08/08/2022 15:29:46 -81.22, 67.95 110.13 0.88 62
190 08/08/2022 16:21:34 81.22,-124.80 69.86 08/08/2022 16:20:31 81.22,-124.83 69.90 0.56 63
191 08/08/2022 17:12:20 -81.22, 42.36 110.12 08/08/2022 17:11:16 -81.22, 42.51 110.10 2.64 64
192 08/08/2022 18:03:05 81.22,-150.06 69.86 08/08/2022 18:02:00 81.21,-149.88 69.87 3.01 65
193 08/08/2022 18:53:51 -81.22, 17.10 110.12 08/08/2022 18:52:46 -81.22, 17.08 110.07 0.52 65
194 08/08/2022 19:44:36 81.22,-175.31 69.86 08/08/2022 19:43:30 81.21,-175.32 69.90 0.27 66
195 08/08/2022 20:35:22 -81.22, -8.15 110.11 08/08/2022 20:34:15 -81.21, -7.98 110.10 3.06 67
196 08/08/2022 21:26:07 81.22, 159.43 69.86 08/08/2022 21:25:00 81.22, 159.24 69.93 3.15 67
197 08/08/2022 22:16:53 -81.22, -33.41 110.11 08/08/2022 22:15:45 -81.22, -33.41 110.07 0.20 68
198 08/08/2022 23:07:39 81.22, 133.78 69.92 08/08/2022 23:06:30 81.22, 133.81 69.96 0.41 69
199 08/08/2022 23:58:24 -81.22, -58.67 110.11 08/08/2022 23:57:15 -81.22, -58.85 110.04 3.10 69
200 08/09/2022 00:49:10 81.22, 108.52 69.92 08/09/2022 00:48:00 81.22, 108.37 69.99 2.66 70
201 08/09/2022 01:39:56 -81.22, -84.31 110.05 08/09/2022 01:38:45 -81.22, -84.29 110.01 0.42 71
202 08/09/2022 02:30:42 81.22, 82.88 69.98 08/09/2022 02:29:30 81.22, 82.93 70.01 0.92 72
203 08/09/2022 03:21:27 -81.22,-109.57 110.05 08/09/2022 03:20:15 -81.22,-109.72 109.99 2.66 72
204 08/09/2022 04:12:13 81.22, 57.62 69.98 08/09/2022 04:11:00 81.22, 57.49 70.04 2.20 73
205 08/09/2022 05:02:59 -81.22,-135.21 109.99 08/09/2022 05:01:45 -81.22,-135.16 109.96 0.91 74
206 08/09/2022 05:53:44 81.22, 32.36 69.99 08/09/2022 05:52:29 81.21, 32.44 70.02 1.36 75



Historial Predications of SNOs between FY3D and NOAA-20
